TimeCDT,TemperatureF,Dew PointF,Humidity,Sea Level PressureIn,VisibilityMPH,Wind Direction,Wind SpeedMPH,Gust SpeedMPH,PrecipitationIn,Events,Conditions,WindDirDegrees,DateUTC
12:15 AM,73.2,63.7,72,29.91,10.0,East,8.1,-,N/A,,Clear,90,2013-07-23 05:15:00
12:35 AM,72.5,64.4,76,29.93,10.0,SE,8.1,-,N/A,,Clear,130,2013-07-23 05:35:00
12:55 AM,71.4,63.9,77,29.93,10.0,East,5.8,-,N/A,,Clear,100,2013-07-23 05:55:00
1:15 AM,70.7,64.4,80,29.92,10.0,ESE,8.1,-,N/A,,Clear,110,2013-07-23 06:15:00
1:35 AM,70.7,64.6,81,29.90,10.0,ESE,9.2,-,N/A,,Clear,110,2013-07-23 06:35:00
1:55 AM,71.1,62.8,75,29.90,10.0,ESE,12.7,-,N/A,,Clear,110,2013-07-23 06:55:00
2:15 AM,70.7,61.5,73,29.90,10.0,East,12.7,-,N/A,,Clear,100,2013-07-23 07:15:00
2:35 AM,70.2,60.1,70,29.90,10.0,ESE,11.5,-,N/A,,Clear,110,2013-07-23 07:35:00
2:55 AM,69.8,59.9,71,29.90,10.0,ESE,9.2,-,N/A,,Clear,110,2013-07-23 07:55:00
3:15 AM,69.1,60.4,74,29.93,10.0,ENE,5.8,-,N/A,,Clear,60,2013-07-23 08:15:00
3:35 AM,68.0,60.8,78,29.95,10.0,NNE,8.1,-,N/A,,Clear,30,2013-07-23 08:35:00
3:55 AM,67.3,61.0,80,29.99,10.0,North,10.4,-,N/A,,Clear,350,2013-07-23 08:55:00
4:15 AM,70.7,59.5,68,30.01,10.0,NNE,19.6,29.9,N/A,,Clear,30,2013-07-23 09:15:00
4:35 AM,70.7,58.5,65,30.01,10.0,NNE,23.0,27.6,N/A,,Clear,20,2013-07-23 09:35:00
4:55 AM,68.0,61.0,78,30.01,10.0,NNE,17.3,31.1,N/A,,Clear,30,2013-07-23 09:55:00
5:15 AM,67.6,61.3,80,30.00,10.0,East,9.2,23.0,N/A,,Scattered Clouds,80,2013-07-23 10:15:00
5:35 AM,68.5,60.3,75,30.00,10.0,NE,17.3,25.3,N/A,,Mostly Cloudy,50,2013-07-23 10:35:00
5:55 AM,68.0,59.2,73,30.00,10.0,NE,15.0,18.4,N/A,,Overcast,50,2013-07-23 10:55:00
6:15 AM,66.7,59.0,76,30.00,10.0,ENE,13.8,-,N/A,,Overcast,60,2013-07-23 11:15:00
6:35 AM,66.4,59.2,78,29.98,10.0,East,13.8,-,N/A,,Overcast,90,2013-07-23 11:35:00
6:55 AM,66.2,58.6,77,29.96,10.0,East,11.5,21.9,N/A,,Scattered Clouds,80,2013-07-23 11:55:00
7:15 AM,65.7,57.9,76,29.93,10.0,East,16.1,-,N/A,,Clear,80,2013-07-23 12:15:00
7:35 AM,66.4,57.9,74,29.96,10.0,East,8.1,-,N/A,,Clear,90,2013-07-23 12:35:00
7:55 AM,66.6,57.9,74,29.94,10.0,East,11.5,-,N/A,,Scattered Clouds,90,2013-07-23 12:55:00
8:15 AM,67.1,58.1,73,29.95,10.0,East,10.4,-,N/A,,Scattered Clouds,100,2013-07-23 13:15:00
8:35 AM,69.1,59.0,70,29.96,10.0,ESE,15.0,-,N/A,,Scattered Clouds,120,2013-07-23 13:35:00
8:55 AM,70.7,59.0,66,29.95,10.0,SE,13.8,19.6,N/A,,Clear,130,2013-07-23 13:55:00
9:15 AM,72.1,59.2,64,29.96,10.0,ESE,10.4,19.6,N/A,,Clear,120,2013-07-23 14:15:00
9:35 AM,73.4,59.5,62,29.97,10.0,East,9.2,-,N/A,,Clear,90,2013-07-23 14:35:00
9:55 AM,74.5,58.8,58,29.97,10.0,ESE,9.2,-,N/A,,Clear,120,2013-07-23 14:55:00
10:15 AM,75.2,59.0,57,29.97,10.0,ESE,6.9,-,N/A,,Clear,120,2013-07-23 15:15:00
10:35 AM,77.2,59.2,54,29.96,10.0,SE,6.9,-,N/A,,Clear,130,2013-07-23 15:35:00
10:55 AM,79.5,59.0,49,29.97,10.0,ENE,10.4,-,N/A,,Clear,60,2013-07-23 15:55:00
11:15 AM,80.1,58.8,48,29.97,10.0,ENE,5.8,-,N/A,,Clear,70,2013-07-23 16:15:00
11:35 AM,81.5,61.0,50,29.97,10.0,ENE,8.1,-,N/A,,Clear,60,2013-07-23 16:35:00
11:55 AM,82.4,59.5,46,29.97,10.0,ENE,8.1,-,N/A,,Clear,60,2013-07-23 16:55:00
12:15 PM,83.8,61.0,46,29.97,10.0,East,9.2,-,N/A,,Clear,90,2013-07-23 17:15:00
12:35 PM,83.1,61.0,47,29.97,10.0,ENE,9.2,-,N/A,,Clear,60,2013-07-23 17:35:00
12:55 PM,84.2,62.2,47,29.96,10.0,ENE,10.4,-,N/A,,Clear,60,2013-07-23 17:55:00
1:15 PM,84.2,62.2,47,29.97,10.0,East,4.6,-,N/A,,Clear,80,2013-07-23 18:15:00
1:35 PM,84.4,63.0,48,29.97,10.0,SE,5.8,-,N/A,,Clear,130,2013-07-23 18:35:00
1:55 PM,84.7,62.8,48,29.96,10.0,South,6.9,-,N/A,,Clear,170,2013-07-23 18:55:00
2:15 PM,85.5,63.5,48,29.97,10.0,SSE,3.5,-,N/A,,Clear,150,2013-07-23 19:15:00
2:35 PM,86.2,65.8,51,29.98,10.0,NE,9.2,-,N/A,,Clear,40,2013-07-23 19:35:00
3:15 PM,86.4,65.8,50,29.99,10.0,NE,8.1,-,N/A,,Clear,50,2013-07-23 20:15:00
3:35 PM,86.4,64.4,48,29.98,10.0,ENE,11.5,-,N/A,,Clear,60,2013-07-23 20:35:00
3:55 PM,85.5,67.3,54,29.98,10.0,NE,16.1,20.7,N/A,,Clear,50,2013-07-23 20:55:00
4:15 PM,85.1,67.1,55,29.99,10.0,NE,15.0,21.9,N/A,,Clear,40,2013-07-23 21:15:00
4:35 PM,83.7,66.4,56,29.99,10.0,NE,15.0,-,N/A,,Clear,40,2013-07-23 21:35:00
4:55 PM,82.9,65.5,55,29.99,10.0,NE,15.0,-,N/A,,Clear,40,2013-07-23 21:55:00
5:15 PM,82.4,66.2,58,29.98,10.0,NE,16.1,21.9,N/A,,Clear,40,2013-07-23 22:15:00
5:35 PM,81.5,65.3,58,29.99,10.0,NE,15.0,-,N/A,,Clear,40,2013-07-23 22:35:00
5:55 PM,81.3,64.0,56,29.99,10.0,NE,17.3,-,N/A,,Clear,50,2013-07-23 22:55:00
6:15 PM,81.1,63.5,55,29.99,10.0,NE,15.0,-,N/A,,Clear,50,2013-07-23 23:15:00
6:35 PM,80.6,64.2,57,29.98,10.0,ENE,15.0,18.4,N/A,,Clear,60,2013-07-23 23:35:00
6:55 PM,79.7,64.8,60,29.98,10.0,NE,16.1,-,N/A,,Clear,50,2013-07-23 23:55:00
7:15 PM,79.2,65.3,62,29.98,10.0,ENE,15.0,-,N/A,,Clear,60,2013-07-24 00:15:00
7:35 PM,78.1,65.3,65,29.99,10.0,ENE,11.5,-,N/A,,Clear,60,2013-07-24 00:35:00
7:55 PM,77.0,65.3,67,29.99,10.0,ENE,10.4,-,N/A,,Clear,60,2013-07-24 00:55:00
8:15 PM,75.6,65.3,70,30.00,10.0,ENE,9.2,-,N/A,,Clear,60,2013-07-24 01:15:00
8:35 PM,74.5,64.4,71,30.01,10.0,ENE,9.2,-,N/A,,Clear,60,2013-07-24 01:35:00
8:55 PM,72.7,64.2,75,30.01,10.0,NE,9.2,-,N/A,,Clear,50,2013-07-24 01:55:00
9:15 PM,71.6,63.9,76,30.02,10.0,NE,9.2,-,N/A,,Clear,50,2013-07-24 02:15:00
9:35 PM,70.7,63.5,78,30.02,10.0,ENE,6.9,-,N/A,,Clear,60,2013-07-24 02:35:00
9:55 PM,69.8,64.0,82,30.02,10.0,ENE,6.9,-,N/A,,Clear,60,2013-07-24 02:55:00
10:15 PM,69.4,63.9,82,30.02,10.0,East,4.6,-,N/A,,Clear,80,2013-07-24 03:15:00
10:35 PM,67.8,63.7,87,30.03,10.0,East,8.1,-,N/A,,Clear,80,2013-07-24 03:35:00
10:55 PM,68.0,64.0,87,30.04,10.0,NE,5.8,-,N/A,,Clear,50,2013-07-24 03:55:00
11:15 PM,68.0,63.9,87,30.04,10.0,NE,5.8,-,N/A,,Clear,50,2013-07-24 04:15:00
11:35 PM,67.1,63.5,88,30.04,10.0,ENE,4.6,-,N/A,,Clear,60,2013-07-24 04:35:00
11:55 PM,66.4,63.1,89,30.04,10.0,East,4.6,-,N/A,,Clear,90,2013-07-24 04:55:00